Location: La Pernelle
(49.6188°N, 1.2999°W)
Time: 09:07:27
(UTC+00:00)

Cosmos 2219 Rocket - Pass Details

Date: 12 June 2021
Orbit: 829 x 846 km, 71.0° (Epoch: 26 July)

Event Time Altitude Azimuth Distance (km) Brightness Sun altitude
Exits shadow 22:31:06 20° 145° (SE) 1,855 3.4 -14.2°
Maximum altitude 22:33:43 29° 104° (ESE) 1,518 3.2 -14.4°
Drops below altitude 10° 22:38:30 10° 47° (NE) 2,476 4.9 -14.7°
Sets 22:41:14 0° 36° (NE) 3,414 5.9 -14.8°
